Weather in Deminsky

Russia / Volgograd Oblast     50°34′18″N   42°17′00″E
temp.,
°C
wind,
m/s
gust,
m/s
humid.,
%
clouds,
%
prec.,
mm/h
press.,
hPa
HPBL,
m
1 march, mon
mon100:00−3nne2393100 0.1 1019282
03:00−5ne129589 0.1 102053
06:00−6nne229496 0.1 102279
09:00−6nne229096 0.1 1025198
12:00−4n238096 0.0 1026442
15:00−3nnw348095 0.0 1026546
18:00−3nw348393 0.0 1026343
21:00−3wnw358497 0.0 1027398
2 march, tue
tue200:00−3wsw378099 0.0 1026464
03:00−3wsw4108179 0.0 1024303
06:00−2wsw6128886 0.0 1022707
09:00−1wsw7138193 0.0 1020822
12:00+1wsw81278100 0.0 1017937
15:000wsw81493100 0.1 1014813
18:000w81497100 0.5 1012689
21:00+1w61197100 0.9 1011510
3 march, wed
wed300:000wnw5998100 0.2 1009408
03:00−1nw4996100 0.3 1010357
06:00−3nnw5109478 0.1 1011340
09:00−3nnw6118846 0.1 1013516
12:00−1nw7108288 0.1 1014934
15:00−1nw8117094 0.3 10161289
18:00−4nw6118169 0.0 1017749
21:00−4nw5128241 0.0 1020533
4 march, thu
thu400:00−4w410850 0.0 1020283
03:00−3w4108932 0.0 1020400
06:00−3wsw4109144 0.0 1019300
09:00−1wsw6118637 0.0 1018576
12:00+2wsw7117334 0.0 1016936
15:00+4wsw7126417 0.0 1014992
18:00+2sw615690 0.0 1012423
21:00+1sw717710 0.0 1011597
5 march, fri
fri500:00+1sw817750 0.0 1010573
03:00+2sw8168041 0.0 1009593
06:00+2wsw71584100 0.0 1009574
09:00+2wsw61289100 0.0 1010539
12:00+4sw7118279 0.0 1010621
15:00+4sw7118389 0.0 1010635
18:00+3ssw61388100 0.0 1009554
21:00+3ssw61587100 0.1 1008475